Tracking 19281 objects as of 16-Nov-2018
HD Live streaming from Space Station
objects crossing your sky now

COSMOS 531

Track COSMOS 531 now!
10-day predictions
COSMOS 531 is classified as:


NORAD ID: 6266
Int'l Code: 1972-087D
Perigee: 1,427.6 km
Apogee: 1,476.0 km
Inclination: 74.0 °
Period: 114.8 minutes
Semi major axis: 7822 km
RCS: 0.7441 m2 (medium)
Launch date: November 1, 1972
Source: Commonwealth of Independent States (former USSR) (CIS)
Launch site: PLESETSK MISSILE AND SPACE COMPLEX (PKMTR)
aabbcc
Your satellite tracking list
Your tracking list is empty




NASA's NSSDC Master Catalog

Two Line Element Set (TLE):
1  6266U 72087D   18319.23953741 -.00000013 +00000-0 +21008-4 0  9990
2  6266 074.0358 229.3478 0030924 168.8261 348.1176 12.54757552108747
Source of the keplerian elements: AFSPC